SAS1817 ESGG-ENGM

Flight info

Callsign SAS1817
Flight time N/A
Altitude 30000
Route SABAK3J SABAK L997 XENTA DCT REGMA DCT LUNIP LUNIP4M
Aircraft A320/M-SDE3FGHIRWY/LB1

Departure

Time 2026-05-04 19:39
Airport Göteborg Landvetter Airport (ESGG)

Arrival

Time N/A
Airport Oslo-Gardermoen International Airport (ENGM)
Time Latitude Longitude Altitude Speed Heading
2026-05-04 19:27 57.66972 12.29501 517 ft 0 kts 116°
2026-05-04 19:32 57.66972 12.29500 517 ft 2 kts 116°
2026-05-04 19:32 57.66979 12.29472 516 ft 2 kts 116°
2026-05-04 19:32 57.66987 12.29443 516 ft 2 kts 116°
2026-05-04 19:32 57.66995 12.29415 516 ft 2 kts 103°
2026-05-04 19:33 57.67004 12.29389 516 ft 2 kts 175°
2026-05-04 19:33 57.67014 12.29390 516 ft 0 kts 213°
2026-05-04 19:34 57.67010 12.29385 516 ft 5 kts 213°
2026-05-04 19:34 57.66990 12.29264 516 ft 13 kts 297°
2026-05-04 19:34 57.67087 12.29225 516 ft 22 kts 22°
2026-05-04 19:34 57.67262 12.29384 516 ft 33 kts 26°
2026-05-04 19:35 57.67394 12.29467 516 ft 15 kts 339°
2026-05-04 19:35 57.67454 12.29314 515 ft 11 kts 297°
2026-05-04 19:35 57.67461 12.29260 515 ft 0 kts 272°
2026-05-04 19:36 57.67461 12.29261 515 ft 0 kts 272°
2026-05-04 19:37 57.67460 12.29229 515 ft 9 kts 265°
2026-05-04 19:37 57.67432 12.29037 515 ft 17 kts 234°
2026-05-04 19:37 57.67393 12.28989 515 ft 0 kts 205°
2026-05-04 19:38 57.67392 12.28989 515 ft 1 kts 205°
2026-05-04 19:38 57.67259 12.28868 514 ft 55 kts 206°
2026-05-04 19:38 57.66715 12.28375 512 ft 116 kts 206°
2026-05-04 19:38 57.65841 12.27579 569 ft 157 kts 206°
2026-05-04 19:39 57.64896 12.26721 1343 ft 148 kts 210°
2026-05-04 19:39 57.63970 12.25825 1983 ft 156 kts 217°
2026-05-04 19:39 57.62940 12.24833 2352 ft 178 kts 214°
2026-05-04 19:39 57.61760 12.23757 2643 ft 200 kts 213°
2026-05-04 19:40 57.60448 12.22572 2983 ft 221 kts 212°
2026-05-04 19:40 57.58982 12.21256 3426 ft 245 kts 211°
2026-05-04 19:40 57.57513 12.19586 4196 ft 248 kts 229°
2026-05-04 19:40 57.56625 12.16912 5083 ft 244 kts 256°
2026-05-04 19:41 57.56267 12.13811 5998 ft 246 kts 261°
2026-05-04 19:41 57.55943 12.10674 6899 ft 248 kts 261°
2026-05-04 19:41 57.55619 12.07512 7783 ft 249 kts 260°
2026-05-04 19:41 57.55296 12.04333 8682 ft 251 kts 259°
2026-05-04 19:42 57.54905 12.01152 9566 ft 253 kts 263°
2026-05-04 19:42 57.55069 11.97903 10373 ft 257 kts 287°
2026-05-04 19:42 57.56025 11.94989 10734 ft 286 kts 311°
2026-05-04 19:42 57.57859 11.93084 10943 ft 323 kts 337°
2026-05-04 19:43 57.60131 11.92002 11089 ft 349 kts 341°
2026-05-04 19:43 57.62578 11.91054 11387 ft 366 kts 343°
2026-05-04 19:43 57.65109 11.90170 12021 ft 373 kts 343°
2026-05-04 19:43 57.67672 11.89285 12683 ft 377 kts 343°
2026-05-04 19:44 57.70261 11.88356 13323 ft 381 kts 342°
2026-05-04 19:44 57.72880 11.87368 13911 ft 386 kts 342°
2026-05-04 19:44 57.75520 11.86338 14481 ft 389 kts 341°
2026-05-04 19:44 57.78172 11.85288 15076 ft 391 kts 341°
2026-05-04 19:45 57.80842 11.84221 15653 ft 393 kts 341°
2026-05-04 19:45 57.83521 11.83146 16238 ft 395 kts 341°
2026-05-04 19:45 57.86213 11.82062 16829 ft 397 kts 341°
2026-05-04 19:45 57.88923 11.80973 17386 ft 399 kts 341°
2026-05-04 19:46 57.91648 11.79886 17955 ft 401 kts 341°
2026-05-04 19:46 57.94385 11.78798 18500 ft 403 kts 341°
2026-05-04 19:46 57.97132 11.77704 19017 ft 404 kts 341°
2026-05-04 19:46 57.99889 11.76600 19454 ft 407 kts 341°
2026-05-04 19:47 58.02667 11.75483 19879 ft 409 kts 340°